User: anonymous   Login
Location: Unspecified
(0.0000°N, 0.0000°E)
Time: 12:37:39
(UTC+00:00)
Language:

CANX-2 - Orbit

View from above orbital plane
View from above orbital plane
View from above satellite
View from above satellite

Ground track
Ground track

The orbit data is extracted from the following two-line orbital elements,

1 32790U 08021H   18171.72937557 +.00000175 +00000-0 +24797-4 0  9991
2 32790 097.5473 181.9214 0014664 034.6764 325.5407 14.87833774549551
Epoch (UTC): 20 June 2018 17:30:18
Eccentricity: 0.0014664
inclination: 97.5473°
perigee height: 594 km
apogee height: 615 km
right ascension of ascending node: 181.9214°
argument of perigee: 34.6764°
revolutions per day: 14.87833774
mean anomaly at epoch: 325.5407°
orbit number at epoch: 54955

The dashed part of the orbit path shows where the satellite is in the earth's shadow,  

DLR